Terminal Aerodrome Forecast
Issued by NWS Amarillo, TX

Home | Current Version | Previous Version | Text Only | Print | Product List | Glossary On
Versions: 1 2 3 4 5 6 7 8 9 10 11 12 13 14 15 16
000
FTUS44 KAMA 201100
TAFDHT
TAF
KDHT 201140Z 2012/2112 20010KT P6SM BKN100
     FM201900 19013KT P6SM VCSH BKN040
     FM210100 34012KT P6SM SCT100=

USA.gov is the U.S. government's official web portal to all federal, state and local government web resources and services.